Fallon NAS, NV

9:39 PM PDT on July 20, 2017 (GMT -0700)
Fallon Naval Air Station

Weather History for KNFL - February, 2013

Change the Weather History Date:

Sunday, February 17, 2013

  Actual Average Record
Temperature  
Mean Temperature 36 °F -  
Max Temperature 52 °F 54 °F 70 °F (1930)
Min Temperature 19 °F 25 °F 6 °F (1990)
Degree Days  
Heating Degree Days 30    
Moisture  
Dew Point 14 °F    
Average Humidity 43    
Maximum Humidity 68    
Minimum Humidity 19    
Precipitation  
Precipitation 0.00 in - - ()
Sea Level Pressure  
Sea Level Pressure 29.95 in    
Wind  
Wind Speed 8 mph (North)    
Max Wind Speed 16 mph    
Max Gust Speed 22 mph    
Visibility 10 miles    
Events      
Averages and records for this station are not official NWS values.
T = Trace of Precipitation, MM = Missing Value Source: NWS Daily Summary

Daily Weather History Graph

Daily Weather History Graph

Search for Another Location

Airport or City:

Trip Planner

Search our weather history database for the weather conditions in past years. The results will help you decide how hot, cold, wet, or windy it might be!

Date:

Astronomy

Feb. 17, 2013 Rise Set
Actual Time 6:43 AM PST 5:34 PM PST
Civil Twilight 6:16 AM PST 6:01 PM PST
Nautical Twilight 5:45 AM PST 6:33 PM PST
Astronomical Twilight 5:13 AM PST 7:04 PM PST
Moon 10:42 AM PST (2/17) 12:31 AM PST (2/17)
Length of Visible Light 11h 45m
Length of Day
10h 50m
Waxing Crescent, 50% of the Moon is Illuminated
Feb 17
Waxing Crescent
Feb 17
First Quarter
Feb 25
Full
Mar 4
Last Quarter
Mar 11
New

Hourly Weather History & Observations

Time (PST) Temp. Windchill Dew Point Humidity Pressure Visibility Wind Dir Wind Speed Gust Speed Precip Events Conditions
12:56 AM 30.0 °F 21.1 °F 16.0 °F 56% 29.94 in 10.0 mi SSW 10.4 mph - N/A   Clear
1:56 AM 30.9 °F 23.5 °F 14.0 °F 50% 29.93 in 10.0 mi SSE 8.1 mph - N/A   Clear
2:56 AM 28.0 °F 22.8 °F 12.9 °F 53% 29.91 in 10.0 mi SSW 4.6 mph - N/A   Clear
3:56 AM 25.0 °F 18.1 °F 12.0 °F 58% 29.91 in 10.0 mi SSE 5.8 mph - N/A   Clear
4:56 AM 24.1 °F - 12.0 °F 60% 29.92 in 10.0 mi Calm Calm - N/A   Clear
5:56 AM 19.0 °F - 9.0 °F 65% 29.93 in 10.0 mi Calm Calm - N/A   Clear
6:56 AM 19.9 °F 10.1 °F 10.9 °F 68% 29.93 in 10.0 mi SSW 8.1 mph - N/A   Clear
7:56 AM 30.9 °F - 18.0 °F 59% 29.95 in 10.0 mi Calm Calm - N/A   Clear
8:56 AM 39.9 °F 35.8 °F 21.0 °F 47% 29.96 in 10.0 mi North 5.8 mph - N/A   Clear
9:56 AM 45.0 °F 38.2 °F 21.9 °F 40% 29.97 in 7.0 mi North 15.0 mph - N/A   Clear
10:56 AM 46.9 °F - 21.9 °F 37% 29.97 in 10.0 mi NNE 16.1 mph 21.9 mph N/A   Clear
11:01 AM 46.4 °F 40.1 °F 21.2 °F 37% 30.06 in 9.0 mi North 15.0 mph 21.9 mph N/A   Partly Cloudy
11:56 AM 48.9 °F - 23.0 °F 36% 29.96 in 5.0 mi North 12.7 mph 20.7 mph N/A   Haze
12:56 PM 48.9 °F - 21.9 °F 35% 29.94 in 6.0 mi NNE 13.8 mph 17.3 mph N/A   Smoke
1:56 PM 52.0 °F - 21.0 °F 30% 29.93 in 10.0 mi NNW 16.1 mph - N/A   Clear
2:56 PM 51.1 °F - 15.1 °F 24% 29.92 in 10.0 mi North 9.2 mph - N/A   Clear
3:56 PM 51.1 °F - 12.0 °F 21% 29.92 in 10.0 mi NNE 11.5 mph - N/A   Clear
4:56 PM 48.9 °F - 8.1 °F 19% 29.92 in 10.0 mi North 10.4 mph - N/A   Clear
5:56 PM 42.1 °F - 10.9 °F 28% 29.93 in 10.0 mi Calm Calm - N/A   Clear
6:56 PM 36.0 °F 32.1 °F 10.0 °F 34% 29.94 in 10.0 mi NNE 4.6 mph - N/A   Clear
7:56 PM 30.9 °F - 9.0 °F 40% 29.95 in 10.0 mi Calm Calm - N/A   Clear
8:56 PM 28.9 °F 22.8 °F 7.0 °F 40% 29.96 in 10.0 mi NNE 5.8 mph - N/A   Clear
9:56 PM 24.1 °F 15.2 °F 5.0 °F 44% 29.97 in 10.0 mi NNW 8.1 mph - N/A   Clear
10:56 PM 23.0 °F - 6.1 °F 48% 29.97 in 10.0 mi Calm Calm - N/A   Clear
11:56 PM 19.9 °F - 3.9 °F 50% 29.98 in 10.0 mi Calm Calm - N/A   Clear